Location: Newark
(20.0000°S, 47.0000°E)
Time: 18:51:30
(UTC+00:00)

Envisat - Pass Details

Date: 19 June 2019
Orbit: 764 x 766 km, 98.1° (Epoch: 20 August)

Event Time Altitude Azimuth Distance (km) Brightness Sun altitude
Exits shadow 16:40:31 21° 214° (SW) 1,684 4.9 -31.6°
Maximum altitude 16:42:43 29° 254° (WSW) 1,393 4.7 -32.1°
Drops below altitude 10° 16:47:02 10° 312° (NW) 2,294 6.1 -33.1°
Sets 16:49:35 0° 323° (NW) 3,214 6.9 -33.7°
